Regional Weather Roundup
Issued by NWS Charleston, WV

Home | Current Version | Previous Version | Graphics & Text | Print | Product List | Glossary On
Versions: 1 2 3 4 5 6 7 8 9 10 11 12 13 14 15 16 17 18 19 20 21 22 23 24 25 26 27 28 29 30 31 32 33 34 35 36 37 38 39 40 41 42 43 44 45 46 47 48 49 50
000
ASUS41 KRLX 030110
RWRRLX
West Virginia Regional Weather Roundup
National Weather Service Charleston WV
900 PM EDT THU JUL 02 2015

Note: "fair" indicates few or no clouds below 12,000 feet with no
significant weather and/or obstructions to visibility.

WVZ003-030200-
Northern Panhandle of West Virginia

CITY           SKY/WX    TMP DP  RH WIND       PRES   REMARKS
WHEELING       CLEAR     70  54  56 NW3       29.94S
$$

WVZ009-030200-
Northwest West Virginia

CITY           SKY/WX    TMP DP  RH WIND       PRES   REMARKS
PARKERSBURG    CLOUDY    70  65  84 CALM      29.95S
$$

WVZ006-030200-
Western West Virginia

CITY           SKY/WX    TMP DP  RH WIND       PRES   REMARKS
HUNTINGTON     CLOUDY    68  66  93 E3        29.90S
$$

WVZ015-030200-
West Central West Virginia

CITY           SKY/WX    TMP DP  RH WIND       PRES   REMARKS
CHARLESTON     MOCLDY    69  65  86 CALM      29.92S FOG
$$

WVZ022-031-030200-
North Central West Virginia

CITY           SKY/WX    TMP DP  RH WIND       PRES   REMARKS
CLARKSBURG     CLEAR     68  62  81 CALM      29.94R
MORGANTOWN     CLEAR     71  54  54 CALM      29.95R
$$

WVZ025-035-042-045-030200-
Southern West Virginia

CITY           SKY/WX    TMP DP  RH WIND       PRES   REMARKS
BECKLEY        CLOUDY    65  61  87 SE6       29.99R FOG
LOGAN          MOCLDY    68  68 100 CALM      29.90S
BLUEFIELD      CLOUDY    66  62  87 E5        30.01R FOG
LEWISBURG      CLOUDY    66  62  86 CALM      29.99S FOG
$$

WVZ047-030200-
Northern Mountains of West Virginia

CITY           SKY/WX    TMP DP  RH WIND       PRES   REMARKS
ELKINS         PTCLDY    63  59  87 CALM      29.99R
$$

WVZ052-030200-
Eastern Panhandle of West Virginia

CITY           SKY/WX    TMP DP  RH WIND       PRES   REMARKS
MARTINSBURG    PTCLDY    70  66  87 CALM      29.92R FOG
PETERSBURG     CLEAR     65  59  82 CALM      29.94R
$$


USA.gov is the U.S. government's official web portal to all federal, state and local government web resources and services.